Location: Bailey Volunteer Fire Department
(33.4359°N, 96.1680°W)
Time: 15:43:56
(UTC+00:00)

Cosmos 2219 Rocket - Pass Details

Date: 13 December 2025
Orbit: 827 x 845 km, 71.0° (Epoch: 14 January)

Event Time Altitude Azimuth Distance (km) Brightness Sun altitude
Exits shadow 12:06:13 - 345° (NNW) 3,270 4.9 -15.0°
Reaches altitude 10° 12:08:25 10° 351° (N) 2,459 4.3 -14.6°
Maximum altitude 12:13:53 50° 66° (ENE) 1,054 3.0 -13.5°
Drops below altitude 10° 12:19:17 10° 141° (SE) 2,434 5.5 -12.5°
Sets 12:21:47 0° 147° (SSE) 3,361 6.3 -12.0°
